STARLINK-4659, 54841

Orbit data source: Space-Track

STARLINK-4659, 54841 is a payload satellite owned by SpaceX/Seattle (US) in LEO that was launched on Wed, 28 Dec 2022 UTC via an FALCON 9 launch vehicle from the Air Force Eastern Test Range (AFETR). Payload-class satellites include a variety of spacecraft equipped with specific instruments for various scientific and technological missions. These include communications satellites like Starlink; space stations such as the ISS; scientific satellites like the Hubble; Earth observation satellites from companies like Planet Labs, Umbra, and HawkEye 360; GPS; miniature CubeSats for education and research; and military/defense satellites.

Loading next visibility...
Identifier
54841, 2022-177X
Orbit
LEO
Country
Flag of USUS
Related business
Manufacturer
SpaceX/Seattle
Mission
Operational Commercial Communications
Bus & Motor
STARLINK, Unknown motor
Mass
305 kg wet, ~290 kg dry
Launch date (UTC)
2022-12-28 (3 years ago)
Launch vehicle
FALCON 9
Launch site
Air Force Eastern Test Range (AFETR)
Object type
Payload
Rocket body
Debris
Shape & HBR
Box + 1 Pan, 10.1 m
Radar Cross Section
13.562 m², Large (>1 m²)

Expand to show TLE details & history
Last TLE update: 2 days ago

TLE from 2 days ago
0 STARLINK-4659
1 54841U 22177X   26171.30241205  .00000036  00000-0  10842-4 0  9993
2 54841  43.0020 273.4083 0001385 269.0569  91.0124 15.27579998192656
Epoch: 2026-06-20T07:15Z
TLE epoch observation values (Epoch: 2026-06-20T07:15:28.401Z)
Latitude
-0°
Longitude
-103.97902°
Altitude
482.842 km
Speed
7.626 km/s
True Right ascension
18h 13m 37s
True Declination
0° 00' 00"
Sunlit
Object was in full shadow at epoch
Visualization orbit readout
Latitude
Unknown
Longitude
Unknown
Altitude
Unknown
Speed
Unknown
Apparent Right ascension
Unknown
Apparent Declination
Unknown
Sunlit
N/A
Visualization observer readout
Local Sidereal Time
21:23:40
Azimuth
Unknown
Elevation
Unknown
Doppler factor
Unknown
Orbital elements
Apogee altitude
485.944 km
Perigee altitude
484.043 km
Semi-major axis
6,863.131 km
Eccentricity
0.00014
Inclination
43.002°
RAAN
273.4083°
Arg. of periapsis
269.0569°
True anomaly
91.02827°
Mean anomaly
91.0124°
Eccentric anomaly
91.02033°
Mean motion
3.81733 °/min
Orbital period
94.31 mins
BSTAR
0.000010842
Loading maneuver chart data...
Computing Atmospheric mass density...
Loading historical data...
Loading historical data...
Loading historical data...
Loading historical data...
Loading historical data...
Loading historical data...
Loading historical data...

Documentation

Showing up to 5 results
|